Tracking 19562 objects as of 25-Mar-2019
HD Live streaming from Space Station
objects crossing your sky now

COSMOS 951

Track COSMOS 951 now!
10-day predictions
COSMOS 951 is classified as:


NORAD ID: 10352
Int'l Code: 1977-087A
Perigee: 966.9 km
Apogee: 1,017.1 km
Inclination: 83.0 °
Period: 104.8 minutes
Semi major axis: 7362 km
RCS: 4.4489 m2 (large)
Launch date: September 13, 1977
Source: Commonwealth of Independent States (former USSR) (CIS)
Launch site: PLESETSK MISSILE AND SPACE COMPLEX (PKMTR)
aabbcc
Your satellite tracking list
Your tracking list is empty




NASA's NSSDC Master Catalog

Two Line Element Set (TLE):
1 10352U 77087A   19084.18149219  .00000024  00000-0  92248-5 0  9993
2 10352  82.9693 318.6563 0034118 172.6636 301.0455 13.74107547 82041
Source of the keplerian elements: AFSPC